Weather History for KFTK - January, 2013

Change the Weather History Date:

Sunday, January 27, 2013

  Actual Average Record
Temperature  
Mean Temperature 32 °F -  
Max Temperature 44 °F 40 °F 68 °F (1999)
Min Temperature 22 °F 24 °F 0 °F (2003)
Degree Days  
Heating Degree Days 32    
Moisture  
Dew Point 29 °F    
Average Humidity 80    
Maximum Humidity 93    
Minimum Humidity 65    
Precipitation  
Precipitation 0.11 in - - ()
Sea Level Pressure  
Sea Level Pressure 30.30 in    
Wind  
Wind Speed 7 mph (ESE)    
Max Wind Speed 17 mph    
Max Gust Speed -    
Visibility 10 miles    
Events Rain    
Averages and records for this station are not official NWS values.
T = Trace of Precipitation, MM = Missing Value Source: NWS Daily Summary

Daily Weather History Graph

Daily Weather History Graph

Search for Another Location

Airport or City:

Trip Planner

Search our weather history database for the weather conditions in past years. The results will help you decide how hot, cold, wet, or windy it might be!

Date:

Astronomy

Jan. 27, 2013 Rise Set
Actual Time 7:51 AM EST 6:01 PM EST
Civil Twilight 7:23 AM EST 6:29 PM EST
Nautical Twilight 6:52 AM EST 7:01 PM EST
Astronomical Twilight 6:21 AM EST 7:32 PM EST
Moon 6:53 PM EST (1/27) 7:45 AM EST (1/27)
Length of Visible Light 11h 06m
Length of Day
10h 10m
Full, 100% of the Moon is Illuminated
Jan 27
Full
Feb 3
Last Quarter
Feb 10
New
Feb 17
First Quarter
Feb 25
Full

Hourly Weather History & Observations

Time (EST) Temp. Windchill Dew Point Humidity Pressure Visibility Wind Dir Wind Speed Gust Speed Precip Events Conditions
12:55 AM 25.3 °F 19.7 °F 17.4 °F 72% 30.41 in 10.0 mi NE 4.6 mph - N/A   Clear
1:55 AM 25.5 °F 19.9 °F 18.0 °F 73% 30.39 in 10.0 mi East 4.6 mph - N/A   Clear
2:55 AM 24.3 °F 17.3 °F 18.1 °F 77% 30.38 in 10.0 mi East 5.8 mph - N/A   Clear
3:55 AM 23.4 °F 17.4 °F 18.1 °F 80% 30.37 in 10.0 mi NE 4.6 mph - N/A   Clear
4:55 AM 23.7 °F 16.6 °F 18.7 °F 81% 30.37 in 10.0 mi ENE 5.8 mph - N/A   Clear
5:55 AM 22.6 °F 16.5 °F 18.7 °F 85% 30.38 in 10.0 mi East 4.6 mph - N/A   Clear
6:55 AM 23.9 °F 16.8 °F 20.5 °F 87% 30.38 in 10.0 mi East 5.8 mph - N/A   Partly Cloudy
7:55 AM 24.6 °F 17.7 °F 21.0 °F 86% 30.38 in 10.0 mi East 5.8 mph - N/A   Mostly Cloudy
8:55 AM 25.5 °F 18.7 °F 21.9 °F 86% 30.38 in 10.0 mi East 5.8 mph - N/A   Overcast
9:55 AM 27.5 °F 21.1 °F 23.4 °F 84% 30.40 in 10.0 mi East 5.8 mph - N/A   Overcast
10:55 AM 30.9 °F 22.8 °F 25.2 °F 79% 30.40 in 10.0 mi East 9.2 mph - N/A   Overcast
11:55 AM 33.8 °F 27.7 °F 26.1 °F 73% 30.38 in 10.0 mi East 6.9 mph - N/A   Scattered Clouds
12:55 PM 36.3 °F 30.1 °F 27.0 °F 69% 30.34 in 10.0 mi East 8.1 mph - N/A   Scattered Clouds
1:55 PM 38.7 °F 34.3 °F 27.9 °F 65% 30.32 in 10.0 mi ESE 5.8 mph - N/A   Mostly Cloudy
2:55 PM 40.1 °F 35.3 °F 29.1 °F 65% 30.29 in 10.0 mi ESE 6.9 mph - N/A   Overcast
3:55 PM 41.2 °F 37.3 °F 30.4 °F 65% 30.28 in 10.0 mi ESE 5.8 mph - N/A   Overcast
4:55 PM 41.9 °F 36.9 °F 30.9 °F 65% 30.26 in 10.0 mi SSE 8.1 mph - N/A   Overcast
5:05 PM 42.8 °F 37.0 °F 32.0 °F 66% 30.26 in 10.0 mi SE 10.4 mph - N/A   Overcast
5:26 PM 41.0 °F 35.8 °F 33.8 °F 76% 30.26 in 10.0 mi SE 8.1 mph - N/A   Overcast
5:31 PM 41.0 °F 35.8 °F 33.8 °F 76% 30.26 in 10.0 mi SE 8.1 mph - N/A   Overcast
5:55 PM 40.5 °F 35.1 °F 34.7 °F 80% 30.25 in 10.0 mi SE 8.1 mph - 0.00 in   Overcast
6:55 PM 39.9 °F 33.9 °F 37.0 °F 89% 30.24 in 7.0 mi SSE 9.2 mph - 0.04 in Rain Light Rain
7:55 PM 40.6 °F 34.3 °F 38.5 °F 92% 30.23 in 7.0 mi SSE 10.4 mph - 0.04 in Rain Light Rain
8:55 PM 41.4 °F 36.2 °F 39.6 °F 93% 30.22 in 7.0 mi SSE 8.1 mph - 0.03 in Rain Light Rain
9:30 PM 41.0 °F 35.2 °F 39.2 °F 93% 30.18 in 7.0 mi SSE 9.2 mph - N/A   Overcast
9:55 PM 42.1 °F 36.6 °F 39.7 °F 91% 30.21 in 7.0 mi South 9.2 mph - 0.00 in   Overcast
10:37 PM 42.8 °F 38.0 °F 39.2 °F 87% 30.20 in 10.0 mi South 8.1 mph - N/A   Overcast
10:55 PM 43.0 °F 36.8 °F 39.7 °F 88% 30.19 in 10.0 mi South 11.5 mph - N/A   Overcast
11:55 PM 44.6 °F 37.2 °F 40.3 °F 85% 30.16 in 10.0 mi South 17.3 mph - N/A   Mostly Cloudy